This is the latest recevied weather packets stored in our database for station/object WX0ABE-13. If no packets are shown the sender has not sent any weather packets the latest 10 day(s).
| Time | Temp. | Humidity | Pressure | Rain* | Wind** | Luminosity | Snow |
|---|---|---|---|---|---|---|---|
| 1788303458 | 30° C | 28% | 1015.5 hPa | 0 mm | - | 35 W/m² | - |
| 1788303152 | 30.56° C | 29% | 1015.5 hPa | 0 mm | - | 36 W/m² | - |
| 1788302848 | 30.56° C | 30% | 1015.4 hPa | 0 mm | - | 176 W/m² | - |
| 1788302539 | 30.56° C | 28% | 1015.4 hPa | 0 mm | - | 46 W/m² | - |
| 1788302235 | 30.56° C | 31% | 1015.4 hPa | 0 mm | - | 122 W/m² | - |
| 1788301934 | 30.56° C | 29% | 1015.4 hPa | 0 mm | - | 229 W/m² | - |
| 1788301631 | 30.56° C | 28% | 1015.5 hPa | 0 mm | - | 297 W/m² | - |
| 1788301327 | 30.56° C | 31% | 1015.3 hPa | 0 mm | - | 345 W/m² | - |
| 1788301023 | 31.11° C | 31% | 1015.3 hPa | 0 mm | - | 376 W/m² | - |
| 1788300719 | 31.11° C | 31% | 1015.3 hPa | 0 mm | - | 388 W/m² | - |
| 1788300417 | 31.67° C | 32% | 1015.6 hPa | 0 mm | - | 400 W/m² | - |
| 1788300117 | 31.67° C | 33% | 1015.6 hPa | 0 mm | - | 413 W/m² | - |
| 1788299815 | 31.67° C | 31% | 1015.6 hPa | 0 mm | - | 426 W/m² | - |
| 1788299510 | 31.11° C | 33% | 1015.6 hPa | 0 mm | - | 438 W/m² | - |
| 1788299208 | 32.22° C | 31% | 1015.7 hPa | 0 mm | - | 449 W/m² | - |
| 1788298903 | 31.67° C | 32% | 1015.7 hPa | 0 mm | - | 459 W/m² | - |
| 1788298603 | 31.67° C | 34% | 1015.7 hPa | 0 mm | - | 470 W/m² | - |
| 1788298297 | 31.11° C | 33% | 1015.8 hPa | 0 mm | - | 481 W/m² | - |
| 1788297997 | 30.56° C | 37% | 1015.8 hPa | 0 mm | - | 492 W/m² | - |
| 1788297693 | 30° C | 35% | 1015.8 hPa | 0 mm | - | 502 W/m² | - |
| 1788297388 | 29.44° C | 35% | 1015.7 hPa | 0 mm | - | 512 W/m² | - |
| 1788297085 | 30° C | 34% | 1015.8 hPa | 0 mm | - | 524 W/m² | - |
| 1788296780 | 30.56° C | 36% | 1016.1 hPa | 0 mm | - | 532 W/m² | - |
| 1788296476 | 30.56° C | 35% | 1016.2 hPa | 0 mm | - | 543 W/m² | - |
| 1788296172 | 29.44° C | 38% | 1016.1 hPa | 0 mm | - | 551 W/m² | - |
* Rain latest hour (hover to see other rain measurements)
** Current wind speed in m/s (hover to see current wind gust speed)